Wind_Speed
1 2 6 7 5 2 3 3 3 6 5 7 7 6 13 11 8 7 5 3 2 4 7 10 13 15 17 20 23 25 26 28 30 31 34 35 36 35 33 30 27 26 25 24
1 5 8 1 2 5 5 7 9 9 9 6 8 12 8 15 11 11 9 4 2 5 8 10 13 16 19 21 22 24 26 28 30 31 32 32 33 33 32 29 28 25 23 24
6 1 4 5 3 5 6 6 6 11 7 3 2 11 7 7 8 10 7 4 2 6 10 12 15 17 19 21 24 26 28 28 29 31 31 32 32 31 31 30 29 25 23 22
5 5 8 7 9 8 10 9 11 12 6 7 4 10 5 7 9 12 10 4 1 5 8 12 15 16 19 22 24 26 28 29 30 31 31 31 30 30 29 29 27 27 24 24
5 1 0 2 5 7 4 1 6 10 10 7 6 6 2 5 8 14 12 6 2 4 8 11 14 16 18 21 23 26 29 30 32 32 30 29 28 28 29 28 27 27 23 19
7 2 4 6 3 5 1 8 2 2 2 8 11 10 20 5 4 4 13 9 4 2 6 9 12 14 16 19 22 25 29 32 34 34 33 30 29 29 30 30 30 29 26 23
5 13 16 12 13 11 7 8 5 4 4 8 6 9 16 5 5 5 14 11 6 2 4 8 10 13 16 18 21 24 28 31 33 36 34 29 30 26 24 25 27 27 28 26
4 5 2 3 9 6 4 7 7 6 5 5 2 8 4 2 7 11 12 10 6 3 4 7 10 12 14 16 18 21 24 28 30 34 34 30 27 22 22 22 23 23 22 23
4 5 3 5 4 3 2 5 8 12 13 5 5 4 3 5 7 9 10 8 6 3 3 5 9 12 14 14 16 18 18 22 28 30 33 31 27 24 23 22 23 25 22 21
2 6 4 7 2 4 7 2 2 3 4 5 5 7 9 7 12 10 10 10 7 5 2 4 7 10 12 14 15 14 15 20 24 26 29 31 31 27 26 25 27 29 27 23
4 3 4 3 3 4 1 1 2 3 3 3 4 5 1 2 5 14 16 14 10 6 4 3 6 8 10 11 13 13 15 18 22 24 25 27 30 29 28 31 32 32 30 31
6 3 6 10 7 7 6 7 7 4 5 5 3 7 2 3 2 13 18 16 11 7 5 3 4 6 8 11 11 14 17 17 20 23 25 26 26 27 30 33 34 38 39 37
0 2 5 5 0 2 3 4 7 4 1 14 8 6 3 7 2 7 15 14 12 10 8 5 4 4 8 9 10 13 16 17 18 21 23 25 29 31 31 32 31 35 39 42
5 8 14 12 8 2 7 5 6 9 5 5 9 14 4 8 9 14 14 15 13 11 10 7 6 6 7 9 10 13 15 16 17 19 22 26 29 30 30 31 32 35 37 39
6 6 4 9 7 6 5 9 8 11 12 11 15 11 10 6 14 19 19 18 15 13 12 9 7 7 7 8 11 13 15 15 17 19 22 26 27 28 29 31 32 34 37 39
3 8 2 4 7 9 11 13 13 16 15 15 17 20 6 1 11 17 20 20 17 15 14 11 9 8 7 8 11 13 13 15 17 19 23 25 26 28 31 32 33 33 36 38
13 7 5 12 4 3 9 15 18 10 10 10 12 13 6 6 11 20 22 21 19 17 15 13 10 9 8 9 11 12 12 13 16 20 21 23 25 28 29 31 32 34 35 35
11 9 4 4 3 5 4 1 6 13 14 14 11 4 6 2 5 13 19 22 19 17 16 15 12 10 9 9 10 11 12 13 15 19 21 23 24 26 28 30 32 34 34 35
17 8 4 3 7 6 7 4 5 6 4 5 15 8 6 10 8 4 17 19 19 18 16 16 13 10 10 9 9 9 10 13 15 18 20 22 23 25 26 28 30 31 31 33
12 10 6 5 5 6 2 3 5 2 4 0 8 12 15 15 5 4 22 19 19 18 17 17 15 12 10 10 9 8 10 11 14 16 18 20 21 23 24 26 27 28 29 30
6 3 12 10 5 5 4 6 10 1 2 2 8 14 19 7 2 4 26 23 21 20 19 16 14 12 11 10 9 8 10 11 12 13 15 17 19 20 21 22 24 25 27 29
10 7 4 6 4 6 8 6 5 2 1 2 6 12 16 7 7 19 27 27 25 23 20 16 14 12 11 9 8 8 8 10 10 10 11 13 15 17 18 20 23 24 25 27
5 5 4 7 4 1 10 2 5 6 4 4 8 12 17 15 16 24 28 27 25 22 19 16 13 12 11 9 8 7 8 8 7 7 8 10 12 14 15 17 20 22 24 25
3 3 2 1 1 2 7 6 7 6 4 5 8 12 18 17 19 23 26 25 24 22 19 16 13 12 11 10 9 8 7 7 5 4 5 7 9 11 13 14 17 19 21 22
2 8 5 3 4 3 9 11 10 9 7 8 9 12 17 17 20 23 26 25 24 21 16 13 12 12 11 12 10 9 8 6 4 2 2 4 7 8 10 12 14 15 16 18
6 4 4 3 4 2 2 12 11 10 10 9 12 16 16 15 18 23 24 24 23 21 16 14 13 12 12 12 11 10 9 7 5 3 1 1 4 6 8 9 10 12 12 14
Wind_Direction
22 172 217 236 197 158 154 193 246 261 255 309 263 234 193 178 187 194 201 216 284 341 354 354 353 353 353 351 350 347 344 343 339 336 334 329 328 325 320 316 307 301 295 290
86 247 237 131 189 210 219 254 261 276 274 222 256 259 181 185 198 198 203 216 297 338 350 355 359 360 357 357 357 355 354 352 349 344 341 337 332 328 326 324 317 309 300 294
214 232 94 186 199 235 243 235 240 257 288 237 240 260 203 197 194 187 186 201 314 354 356 360 6 7 6 7 7 6 3 358 353 346 343 339 338 337 333 329 332 324 312 304
242 257 237 233 257 227 267 228 249 262 249 258 216 281 216 200 204 208 194 181 351 4 6 7 10 13 13 15 13 10 8 3 358 355 350 347 342 338 335 336 333 327 320 308
239 280 93 189 229 177 232 239 268 257 246 271 217 264 229 154 223 217 186 170 157 13 13 13 15 15 20 18 16 17 12 8 4 358 355 351 345 339 339 338 328 331 326 318
256 280 251 243 216 196 89 314 320 54 217 251 233 220 273 207 207 146 171 166 159 55 31 21 21 25 25 23 23 23 18 13 8 1 359 355 349 346 347 342 341 339 336 331
300 263 253 239 262 255 260 274 280 256 212 256 191 214 258 180 185 171 167 161 154 97 49 28 23 24 25 24 24 24 21 18 13 8 5 0 356 354 350 348 345 344 341 336
277 305 223 149 210 239 188 203 221 252 257 301 174 237 248 71 124 123 140 145 148 115 57 32 23 19 17 15 15 17 20 20 16 14 11 8 6 5 4 6 5 1 353 346
208 241 274 223 165 177 154 199 243 252 252 283 250 275 199 153 148 147 152 155 157 137 72 37 27 24 24 19 16 14 14 19 18 18 18 18 17 20 23 25 27 22 10 353
235 278 247 266 213 249 232 192 228 116 238 229 253 259 246 218 207 188 179 180 174 161 117 44 31 26 23 23 27 22 17 19 24 23 24 26 25 27 34 38 41 36 31 11
185 226 244 318 228 196 103 150 33 177 213 278 293 255 341 300 209 190 185 185 180 166 140 71 39 29 24 25 30 31 33 35 36 35 30 36 37 40 46 53 52 50 47 48
237 212 250 248 235 248 244 241 214 230 220 228 252 259 4 326 297 181 172 174 173 171 154 112 58 42 37 42 44 47 46 40 43 45 43 44 47 44 48 53 59 60 58 61
161 257 287 292 264 144 222 207 231 259 182 245 259 268 142 126 123 180 163 166 173 166 160 145 101 74 58 54 56 57 56 50 47 49 52 50 53 51 51 53 51 54 58 61
266 247 247 258 252 194 257 231 241 224 251 275 239 268 221 214 197 178 178 175 175 168 163 151 128 91 74 68 65 64 61 58 55 57 60 58 56 55 54 55 55 57 60 58
200 256 221 255 250 219 249 249 229 239 242 237 269 260 267 210 210 189 184 173 167 168 168 164 141 113 93 80 70 68 66 68 65 64 63 62 61 61 60 59 56 56 57 59
19 282 229 271 258 229 249 246 239 239 246 255 255 267 277 222 154 169 182 173 174 174 171 167 149 133 116 89 76 72 72 74 74 69 66 65 62 59 59 59 58 58 59 58
282 281 278 268 217 235 272 244 227 226 228 238 243 249 180 190 187 185 180 180 179 174 172 166 154 143 124 106 86 82 81 78 77 76 70 64 62 62 59 58 60 60 57 60
239 231 242 287 172 239 246 211 218 222 247 230 245 205 185 183 176 185 191 180 176 174 173 170 160 146 131 113 97 88 87 83 78 75 72 68 63 60 60 59 57 58 60 58
219 211 220 241 251 309 285 189 191 198 283 235 233 163 140 133 131 165 188 193 188 180 173 168 162 151 134 119 109 105 96 89 82 77 73 68 63 61 59 57 58 57 56 58
184 207 212 221 244 247 227 197 167 161 271 187 174 168 157 154 189 190 186 187 180 174 169 167 164 154 140 130 122 119 108 95 84 77 73 70 66 62 59 58 57 58 59 58
191 205 225 233 245 255 229 174 136 213 345 158 173 171 167 186 202 187 178 175 178 172 167 165 161 156 147 137 134 136 119 102 85 78 74 69 64 61 59 60 60 58 55 53
188 198 202 201 235 263 151 140 195 122 118 168 174 182 176 172 158 158 169 169 172 171 171 170 166 163 158 148 141 144 131 108 95 83 74 68 63 58 54 50 50 50 49 49
197 204 186 199 218 82 174 102 157 154 151 195 195 185 183 168 160 166 167 168 173 175 172 173 174 169 167 160 153 156 143 121 108 92 75 63 56 50 47 46 46 44 43 41
228 172 208 190 192 208 194 185 178 185 189 191 192 186 181 173 166 165 167 170 173 177 177 177 176 178 179 175 169 167 160 139 122 98 75 61 50 44 39 36 37 36 38 38
190 155 172 244 238 235 223 207 196 180 176 179 175 180 180 179 171 173 172 176 178 177 178 179 179 182 185 185 182 179 174 161 153 133 72 48 38 34 30 30 34 33 33 32
189 174 186 220 192 132 148 197 188 181 179 181 183 173 180 185 179 177 180 183 181 180 181 182 184 186 191 185 190 189 187 187 191 200 201 25 26 23 24 26 24 23 27 26
Height
1524 1523 1520 1517 1522 1522 1523 1525 1524 1519 1517 1518 1513 1513 1521 1528 1532 1534 1534 1532 1531 1530 1529 1526 1524 1521 1518 1513 1510 1506 1503 1498 1494 1488 1482 1477 1471 1467 1462 1459 1457 1453 1450 1449
1526 1523 1517 1521 1523 1522 1522 1522 1521 1518 1514 1516 1511 1509 1519 1523 1523 1527 1530 1530 1530 1528 1526 1524 1521 1518 1515 1511 1509 1505 1500 1494 1489 1484 1479 1474 1467 1462 1457 1451 1450 1446 1444 1442
1520 1520 1517 1520 1522 1523 1521 1522 1521 1518 1512 1513 1513 1502 1511 1519 1522 1523 1525 1527 1528 1526 1524 1522 1519 1516 1513 1510 1506 1502 1497 1492 1488 1482 1476 1470 1464 1458 1452 1448 1443 1442 1439 1436
1519 1516 1517 1518 1520 1521 1521 1518 1516 1515 1517 1512 1508 1493 1500 1509 1515 1520 1522 1525 1526 1525 1523 1521 1518 1515 1512 1509 1505 1501 1496 1491 1486 1480 1474 1468 1461 1455 1451 1445 1441 1439 1436 1431
1516 1514 1515 1517 1515 1516 1517 1515 1515 1513 1512 1512 1508 1508 1478 1509 1507 1508 1517 1521 1523 1523 1522 1520 1517 1514 1511 1508 1505 1499 1496 1490 1484 1478 1472 1465 1460 1454 1447 1441 1438 1434 1428 1423
1515 1513 1515 1512 1511 1512 1513 1513 1515 1517 1514 1509 1497 1502 1470 1493 1498 1507 1513 1517 1519 1519 1519 1518 1517 1514 1512 1508 1504 1500 1495 1489 1483 1477 1469 1462 1457 1450 1443 1439 1433 1426 1420 1414
1512 1508 1508 1511 1511 1509 1512 1517 1520 1515 1515 1500 1494 1499 1480 1497 1501 1502 1508 1514 1516 1517 1516 1516 1515 1513 1510 1507 1503 1499 1494 1488 1483 1476 1468 1462 1455 1450 1445 1438 1431 1423 1415 1410
1514 1511 1506 1507 1507 1506 1508 1510 1515 1514 1504 1498 1500 1491 1482 1502 1504 1505 1509 1512 1515 1516 1515 1514 1513 1511 1508 1506 1502 1498 1494 1489 1484 1477 1469 1462 1456 1451 1445 1438 1430 1423 1416 1409
1513 1510 1504 1503 1502 1503 1506 1507 1500 1507 1505 1517 1495 1492 1499 1505 1507 1507 1508 1511 1512 1513 1514 1514 1513 1510 1507 1504 1501 1498 1495 1490 1485 1477 1471 1463 1458 1451 1444 1437 1429 1424 1416 1408
1508 1508 1501 1499 1499 1499 1499 1499 1506 1515 1511 1504 1487 1490 1482 1496 1500 1505 1508 1509 1511 1512 1513 1513 1511 1509 1507 1504 1500 1499 1496 1490 1484 1479 1473 1467 1461 1453 1445 1438 1430 1425 1418 1409
1507 1508 1502 1499 1498 1496 1498 1500 1504 1503 1508 1502 1497 1480 1490 1492 1492 1496 1502 1506 1509 1510 1511 1510 1510 1509 1507 1504 1501 1500 1496 1491 1486 1481 1476 1471 1465 1458 1451 1441 1435 1429 1421 1415
1506 1506 1501 1496 1492 1492 1493 1495 1496 1506 1500 1502 1499 1480 1494 1494 1492 1495 1498 1502 1504 1508 1508 1509 1509 1509 1507 1504 1503 1500 1495 1492 1488 1483 1479 1475 1469 1464 1456 1449 1443 1435 1428 1421
1506 1507 1499 1491 1492 1492 1493 1493 1492 1495 1504 1492 1497 1478 1492 1490 1497 1499 1498 1500 1503 1504 1506 1508 1508 1510 1506 1505 1504 1499 1495 1494 1490 1485 1482 1479 1472 1467 1462 1455 1450 1443 1435 1428
1504 1497 1497 1494 1490 1492 1492 1492 1489 1489 1496 1489 1484 1475 1486 1490 1490 1493 1497 1499 1501 1503 1506 1507 1508 1508 1507 1506 1504 1499 1496 1495 1492 1489 1486 1481 1476 1472 1468 1463 1457 1450 1442 1435
1498 1495 1495 1490 1489 1489 1491 1487 1488 1487 1483 1486 1473 1479 1476 1479 1481 1484 1493 1495 1499 1503 1505 1507 1507 1508 1508 1507 1504 1500 1498 1498 1494 1492 1489 1484 1481 1478 1474 1469 1464 1458 1451 1444
1499 1492 1498 1500 1490 1489 1491 1489 1492 1484 1482 1480 1475 1471 1473 1476 1478 1484 1489 1492 1496 1500 1503 1505 1504 1506 1507 1507 1504 1500 1501 1500 1497 1494 1491 1488 1485 1481 1477 1473 1469 1465 1459 1454
1501 1498 1497 1482 1488 1487 1486 1475 1473 1470 1471 1470 1472 1463 1471 1474 1476 1479 1483 1487 1492 1496 1500 1502 1503 1505 1506 1506 1504 1502 1503 1503 1500 1496 1494 1491 1489 1485 1481 1478 1475 1470 1466 1464
1492 1495 1494 1482 1486 1479 1463 1465 1465 1467 1463 1464 1463 1466 1468 1470 1474 1478 1481 1484 1490 1494 1497 1500 1502 1504 1506 1505 1504 1505 1505 1504 1503 1499 1497 1494 1492 1489 1487 1484 1479 1476 1474 1470
1483 1488 1482 1478 1472 1468 1459 1463 1465 1463 1455 1456 1457 1464 1469 1472 1476 1479 1481 1485 1488 1492 1495 1499 1502 1504 1504 1504 1504 1506 1506 1506 1505 1502 1499 1496 1495 1492 1490 1488 1485 1482 1479 1477
1478 1479 1480 1476 1472 1466 1455 1458 1460 1461 1454 1457 1458 1463 1467 1472 1471 1472 1477 1482 1487 1491 1495 1498 1501 1503 1503 1504 1505 1506 1507 1507 1506 1505 1502 1500 1498 1496 1494 1491 1490 1487 1486 1482
1474 1475 1471 1468 1467 1459 1454 1458 1457 1460 1457 1458 1458 1461 1465 1468 1469 1469 1474 1481 1486 1490 1494 1498 1500 1502 1503 1504 1505 1506 1507 1508 1508 1507 1506 1503 1501 1499 1498 1496 1494 1491 1488 1485
1462 1465 1462 1466 1464 1462 1453 1458 1455 1455 1457 1457 1458 1459 1463 1466 1468 1470 1475 1479 1485 1489 1493 1497 1499 1501 1502 1504 1505 1507 1508 1508 1508 1508 1507 1506 1503 1502 1500 1499 1496 1493 1491 1488
1457 1452 1452 1454 1448 1451 1451 1451 1453 1454 1455 1456 1457 1459 1462 1465 1468 1471 1475 1480 1485 1489 1492 1496 1498 1499 1501 1503 1505 1507 1508 1508 1509 1509 1509 1507 1506 1504 1502 1501 1498 1496 1493 1490
1450 1450 1450 1451 1449 1450 1451 1451 1453 1454 1455 1456 1457 1458 1461 1464 1467 1471 1476 1480 1485 1489 1491 1494 1496 1498 1500 1503 1505 1507 1508 1509 1509 1509 1509 1508 1507 1505 1504 1502 1499 1498 1495 1493
1445 1447 1448 1448 1447 1449 1448 1449 1451 1453 1454 1455 1456 1458 1461 1464 1467 1470 1475 1479 1483 1487 1490 1493 1495 1497 1500 1502 1504 1506 1507 1508 1509 1509 1509 1508 1507 1506 1504 1503 1501 1500 1497 1496
1442 1441 1443 1441 1440 1442 1444 1446 1449 1451 1453 1454 1456 1458 1461 1464 1466 1470 1474 1478 1482 1486 1489 1492 1494 1496 1499 1500 1503 1504 1506 1507 1508 1508 1508 1508 1507 1506 1505 1503 1502 1500 1499 1496